This is the latest recevied weather packets stored in our database for station/object K4VEB. If no packets are shown the sender has not sent any weather packets the latest 10 day(s).
| Time | Temp. | Humidity | Pressure | Rain* | Wind** | Luminosity | Snow |
|---|---|---|---|---|---|---|---|
| 1777994091 | 27.78° C | 58% | 1016.8 hPa | 0 mm | - | 706 W/m² | - |
| 1777993789 | 26.67° C | 60% | 1016.6 hPa | 0 mm | - | 597 W/m² | - |
| 1777993486 | 26.67° C | 58% | 1016.7 hPa | 0 mm | - | 641 W/m² | - |
| 1777993185 | 26.67° C | 61% | 1016.6 hPa | 0 mm | - | 668 W/m² | - |
| 1777992883 | 26.11° C | 62% | 1016.6 hPa | 0 mm | - | 673 W/m² | - |
| 1777992581 | 26.11° C | 62% | 1016.7 hPa | 0 mm | - | 643 W/m² | - |
| 1777992279 | 26.11° C | 64% | 1016.7 hPa | 0 mm | - | 618 W/m² | - |
| 1777991976 | 25.56° C | 65% | 1016.5 hPa | 0 mm | - | 607 W/m² | - |
| 1777991674 | 26.11° C | 64% | 1016.6 hPa | 0 mm | - | 307 W/m² | - |
| 1777991370 | 26.11° C | 64% | 1016.5 hPa | 0 mm | - | 583 W/m² | - |
| 1777991068 | 25.56° C | 66% | 1016.5 hPa | 0 mm | - | 517 W/m² | - |
| 1777990765 | 25.56° C | 66% | 1016.5 hPa | 0 mm | - | 547 W/m² | - |
| 1777990462 | 25° C | 67% | 1016.4 hPa | 0 mm | - | 526 W/m² | - |
| 1777989855 | 24.44° C | 69% | 1016.5 hPa | 0 mm | - | 485 W/m² | - |
| 1777989552 | 24.44° C | 69% | 1016.5 hPa | 0 mm | - | 464 W/m² | - |
| 1777989249 | 24.44° C | 68% | 1016.5 hPa | 0 mm | - | 455 W/m² | - |
| 1777988945 | 24.44° C | 69% | 1016.3 hPa | 0 mm | - | 437 W/m² | - |
| 1777988641 | 24.44° C | 68% | 1016.2 hPa | 0 mm | - | 422 W/m² | - |
| 1777988338 | 24.44° C | 69% | 1016.2 hPa | 0 mm | - | 399 W/m² | - |
| 1777988035 | 23.89° C | 70% | 1016.4 hPa | 0 mm | - | 378 W/m² | - |
| 1777987731 | 23.89° C | 70% | 1016.3 hPa | 0 mm | - | 336 W/m² | - |
| 1777987428 | 23.89° C | 71% | 1016.7 hPa | 0 mm | - | 347 W/m² | - |
| 1777987126 | 23.33° C | 71% | 1016.6 hPa | 0 mm | - | 297 W/m² | - |
| 1777986822 | 23.33° C | 71% | 1016.6 hPa | 0 mm | - | 297 W/m² | - |
| 1777986520 | 23.33° C | 72% | 1016.4 hPa | 0 mm | - | 284 W/m² | - |
* Rain latest hour (hover to see other rain measurements)
** Current wind speed in m/s (hover to see current wind gust speed)